This is the latest recevied weather packets stored in our database for station/object W0BJ. If no packets are shown the sender has not sent any weather packets the latest 10 day(s).
| Time | Temp. | Humidity | Pressure | Rain* | Wind** | Luminosity | Snow |
|---|---|---|---|---|---|---|---|
| 1777995145 | 14.44° C | 57% | 1012.5 hPa | 0 mm | - | - | - |
| 1777994599 | 14.44° C | 58% | 1012.4 hPa | 0 mm | - | - | - |
| 1777994545 | 14.44° C | 59% | 1012.4 hPa | 0 mm | - | - | - |
| 1777993944 | 13.89° C | 61% | 1012.7 hPa | 0 mm | - | - | - |
| 1777993698 | 13.89° C | 63% | 1012.6 hPa | 0 mm | - | - | - |
| 1777993344 | 13.33° C | 66% | 1012.6 hPa | 0 mm | - | - | - |
| 1777992798 | 12.78° C | 66% | 1012.6 hPa | 0.25 mm | - | - | - |
| 1777992744 | 12.78° C | 66% | 1012.5 hPa | 0.25 mm | - | - | - |
| 1777992143 | 12.78° C | 65% | 1012.6 hPa | 0.25 mm | - | - | - |
| 1777991899 | 13.33° C | 68% | 1012.4 hPa | 0.25 mm | - | - | - |
| 1777991545 | 12.22° C | 69% | 1012.1 hPa | 0.25 mm | - | - | - |
| 1777990998 | 11.67° C | 71% | 1012.4 hPa | 0.25 mm | - | - | - |
| 1777990944 | 11.67° C | 71% | 1012.6 hPa | 0.25 mm | - | - | - |
| 1777990344 | 11.67° C | 72% | 1012.2 hPa | 0.25 mm | - | - | - |
| 1777989743 | 11.67° C | 76% | 1011.9 hPa | 0.25 mm | - | - | - |
| 1777989199 | 11.67° C | 75% | 1012.6 hPa | 0 mm | - | - | - |
| 1777989145 | 11.67° C | 75% | 1012.6 hPa | 0 mm | - | - | - |
| 1777988543 | 11.11° C | 79% | 1012.3 hPa | 0.25 mm | - | - | - |
| 1777988297 | 11.11° C | 79% | 1012 hPa | 0.51 mm | - | - | - |
| 1777987945 | 11.11° C | 83% | 1012 hPa | 0.76 mm | - | - | - |
| 1777987398 | 11.11° C | 81% | 1012.3 hPa | 1.02 mm | - | - | - |
| 1777987344 | 11.11° C | 82% | 1012.3 hPa | 1.02 mm | - | - | - |
| 1777986744 | 10.56° C | 83% | 1012.2 hPa | 1.27 mm | - | - | - |
| 1777986498 | 10.56° C | 83% | 1012.1 hPa | 1.52 mm | - | - | - |
| 1777986143 | 10.56° C | 86% | 1011.6 hPa | 2.03 mm | - | - | - |
* Rain latest hour (hover to see other rain measurements)
** Current wind speed in m/s (hover to see current wind gust speed)